,,PA_Meas_PMT16A,,PR_Meas_QMR101_102,,RH_Meas_QMH101,,SR_Meas_QMS101,,TA_Meas_QMH101,,GenWind,,GenWind,
time,status,PA,status,PR,status,RH,status,SR,status,TA,status,DirAvg,status,SpdAvg,
2011-09-13, 00:00:04,VALID,916.624,VALID,0,VALID,77.0727,VALID,0.107441,VALID,21.7298,VALID,159,VALID,1.60625,
2011-09-13, 00:01:04,VALID,916.64,VALID,0,VALID,77.4844,VALID,0.107441,VALID,21.8079,VALID,151,VALID,1.01445,
2011-09-13, 00:02:04,VALID,916.646,VALID,0,VALID,77.5225,VALID,0,VALID,21.7688,VALID,172,VALID,1.69453,
2011-09-13, 00:03:04,VALID,916.614,VALID,0,VALID,77.2481,VALID,0.107441,VALID,21.6891,VALID,176,VALID,0.666016,
2011-09-13, 00:04:04,VALID,916.613,VALID,0,VALID,77.4692,VALID,0,VALID,21.6908,VALID,157,VALID,1.46953,
2011-09-13, 00:05:04,VALID,916.643,VALID,0,VALID,77.9113,VALID,0,VALID,21.6518,VALID,155,VALID,1.07969,
2011-09-13, 00:06:04,VALID,916.648,VALID,0,VALID,77.6292,VALID,0.107441,VALID,21.6518,VALID,173,VALID,1.83359,
2011-09-13, 00:07:04,VALID,916.601,VALID,0,VALID,77.4158,VALID,0.107441,VALID,21.6908,VALID,147,VALID,1.71211,
2011-09-13, 00:08:04,VALID,916.612,VALID,0,VALID,77.21,VALID,0.107441,VALID,21.7087,VALID,172,VALID,1.87383,
2011-09-13, 00:09:04,VALID,916.563,VALID,0,VALID,75.609,VALID,0.107441,VALID,21.7688,VALID,114,VALID,1.58945,
2011-09-13, 00:10:04,VALID,916.533,VALID,0,VALID,75.7539,VALID,0,VALID,21.8647,VALID,168,VALID,0.851953,
2011-09-13, 00:11:04,VALID,916.516,VALID,0,VALID,75.5938,VALID,0,VALID,21.9444,VALID,146,VALID,1.1125,
2011-09-13, 00:12:04,VALID,916.542,VALID,0,VALID,76.0207,VALID,0.107441,VALID,21.9444,VALID,165,VALID,1.03516,
2011-09-13, 00:13:04,VALID,916.516,VALID,0,VALID,76.623,VALID,0,VALID,21.9054,VALID,165,VALID,0.288672,
2011-09-13, 00:14:04,VALID,916.512,VALID,0,VALID,76.3028,VALID,0,VALID,21.8664,VALID,133,VALID,1.67969,
2011-09-13, 00:15:04,VALID,916.507,VALID,0,VALID,75.8225,VALID,0,VALID,21.8664,VALID,162,VALID,0.973828,
2011-09-13, 00:16:04,VALID,916.497,VALID,0,VALID,75.5862,VALID,0,VALID,21.9054,VALID,131,VALID,0.574609,
2011-09-13, 00:17:04,VALID,916.491,VALID,0,VALID,76.1579,VALID,0,VALID,21.9054,VALID,156,VALID,0.808203,
2011-09-13, 00:18:04,VALID,916.425,VALID,0,VALID,75.9597,VALID,0,VALID,21.8452,VALID,156,VALID,0.953125,
2011-09-13, 00:19:04,VALID,916.47,VALID,0,VALID,77.027,VALID,0,VALID,21.8274,VALID,168,VALID,0.953125,
2011-09-13, 00:20:04,VALID,916.427,VALID,0,VALID,74.5341,VALID,0,VALID,21.8859,VALID,163,VALID,1.39492,
2011-09-13, 00:21:04,VALID,916.375,VALID,0,VALID,74.2978,VALID,0,VALID,21.9835,VALID,157,VALID,1.18047,
2011-09-13, 00:22:04,VALID,916.338,VALID,0,VALID,74.6027,VALID,0.107441,VALID,22.0013,VALID,175,VALID,1.11055,
2011-09-13, 00:23:04,VALID,916.328,VALID,0,VALID,72.8189,VALID,0,VALID,22.0225,VALID,201,VALID,1.54258,
2011-09-13, 00:24:04,VALID,916.302,VALID,0,VALID,74.679,VALID,0,VALID,22.0013,VALID,174,VALID,1.14766,
2011-09-13, 00:25:04,VALID,916.308,VALID,0,VALID,76.1046,VALID,0,VALID,21.9444,VALID,174,VALID,0.851172,
2011-09-13, 00:26:04,VALID,916.31,VALID,0,VALID,77.675,VALID,0,VALID,21.7883,VALID,174,VALID,1.09258,
2011-09-13, 00:27:04,VALID,916.303,VALID,0,VALID,78.5059,VALID,0,VALID,21.6323,VALID,174,VALID,0.706641,
2011-09-13, 00:28:04,VALID,916.293,VALID,0,VALID,79.558,VALID,0,VALID,21.5168,VALID,174,VALID,0.718359,
2011-09-13, 00:29:04,VALID,916.3,VALID,0,VALID,80.3508,VALID,0,VALID,21.3412,VALID,174,VALID,0.499219,
2011-09-13, 00:30:04,VALID,916.334,VALID,0,VALID,78.8261,VALID,0,VALID,21.2242,VALID,175,VALID,1.23516,
2011-09-13, 00:31:04,VALID,916.328,VALID,0,VALID,79.8629,VALID,0,VALID,21.1461,VALID,175,VALID,0.357031,
2011-09-13, 00:32:04,VALID,916.318,VALID,0,VALID,78.9938,VALID,0,VALID,21.1266,VALID,155,VALID,1.30898,
2011-09-13, 00:33:04,VALID,916.324,VALID,0,VALID,79.2302,VALID,0,VALID,21.1071,VALID,96,VALID,0.525,
2011-09-13, 00:34:04,VALID,916.299,VALID,0,VALID,79.3979,VALID,0,VALID,21.047,VALID,96,VALID,0.472656,
2011-09-13, 00:35:04,VALID,916.289,VALID,0,VALID,80.6481,VALID,0,VALID,21.0096,VALID,96,VALID,0.678906,
2011-09-13, 00:36:04,VALID,916.251,VALID,0,VALID,80.6634,VALID,0,VALID,20.912,VALID,96,VALID,0.410547,
2011-09-13, 00:37:04,VALID,916.294,VALID,0,VALID,81.5019,VALID,0,VALID,20.7739,VALID,96,VALID,0.844141,
2011-09-13, 00:38:04,VALID,916.272,VALID,0,VALID,81.784,VALID,0,VALID,20.6585,VALID,96,VALID,0.464844,
2011-09-13, 00:39:04,VALID,916.278,VALID,0,VALID,81.5553,VALID,0,VALID,20.5999,VALID,96,VALID,0.78125,
2011-09-13, 00:40:04,VALID,916.251,VALID,0,VALID,81.7001,VALID,0.107441,VALID,20.6179,VALID,96,VALID,0.130859,
2011-09-13, 00:41:04,VALID,916.228,VALID,0,VALID,82.2795,VALID,0,VALID,20.5984,VALID,96,VALID,0.354297,
2011-09-13, 00:42:04,VALID,916.227,VALID,0,VALID,82.7293,VALID,0,VALID,20.5399,VALID,96,VALID,0.456641,
2011-09-13, 00:43:04,VALID,916.234,VALID,0,VALID,82.8742,VALID,0,VALID,20.5204,VALID,96,VALID,0.121875,
2011-09-13, 00:44:04,VALID,916.26,VALID,0,VALID,83.1486,VALID,0,VALID,20.4829,VALID,96,VALID,0.292188,
2011-09-13, 00:45:04,VALID,916.242,VALID,0,VALID,83.3849,VALID,0,VALID,20.4033,VALID,96,VALID,0,
2011-09-13, 00:46:04,VALID,916.258,VALID,0,VALID,84.5056,VALID,0,VALID,20.3838,VALID,96,VALID,0.0289063,
2011-09-13, 00:47:04,VALID,916.218,VALID,0,VALID,85.0697,VALID,0,VALID,20.3643,VALID,96,VALID,0.551172,
2011-09-13, 00:48:04,VALID,916.254,VALID,0,VALID,85.2984,VALID,0,VALID,20.3253,VALID,96,VALID,0.365234,
2011-09-13, 00:49:04,VALID,916.264,VALID,0,VALID,85.4204,VALID,0,VALID,20.2863,VALID,96,VALID,0.4375,
2011-09-13, 00:50:04,VALID,916.227,VALID,0,VALID,85.8015,VALID,0,VALID,20.2473,VALID,96,VALID,0.474609,
2011-09-13, 00:51:04,VALID,916.257,VALID,0,VALID,85.2755,VALID,0,VALID,20.1693,VALID,96,VALID,0.764453,
2011-09-13, 00:52:04,VALID,916.252,VALID,0,VALID,86.9069,VALID,0,VALID,19.9158,VALID,96,VALID,0.514844,
2011-09-13, 00:53:04,VALID,916.238,VALID,0,VALID,87.372,VALID,0,VALID,19.7793,VALID,96,VALID,0.6875,
2011-09-13, 00:54:04,VALID,916.207,VALID,0,VALID,86.7926,VALID,0,VALID,19.7598,VALID,96,VALID,0.588672,
2011-09-13, 00:55:04,VALID,916.218,VALID,0,VALID,86.419,VALID,0,VALID,19.7403,VALID,152,VALID,0.547266,
2011-09-13, 00:56:04,VALID,916.175,VALID,0,VALID,86.015,VALID,0,VALID,19.7403,VALID,152,VALID,0.851563,
2011-09-13, 00:57:04,VALID,916.164,VALID,0,VALID,84.9553,VALID,0,VALID,19.8768,VALID,152,VALID,1.125,
2011-09-13, 00:58:04,VALID,916.142,VALID,0,VALID,84.2692,VALID,0,VALID,20.0328,VALID,152,VALID,0.5875,
2011-09-13, 00:59:04,VALID,916.126,VALID,0,VALID,83.5831,VALID,0,VALID,20.1708,VALID,152,VALID,0.565234,
2011-09-13, 01:00:04,VALID,916.056,VALID,0,VALID,82.0661,VALID,0,VALID,20.2489,VALID,152,VALID,0.5875,
2011-09-13, 01:01:04,VALID,916.067,VALID,0,VALID,82.1347,VALID,0,VALID,20.3269,VALID,152,VALID,0.777344,
2011-09-13, 01:02:04,VALID,916.035,VALID,0,VALID,81.5401,VALID,0,VALID,20.3074,VALID,152,VALID,0.853125,
2011-09-13, 01:03:04,VALID,916.089,VALID,0,VALID,81.5705,VALID,0,VALID,20.2473,VALID,152,VALID,0.754297,
2011-09-13, 01:04:04,VALID,916.043,VALID,0,VALID,81.9441,VALID,0,VALID,20.2668,VALID,152,VALID,0.808203,
2011-09-13, 01:05:04,VALID,916.035,VALID,0,VALID,82.1423,VALID,0,VALID,20.2668,VALID,152,VALID,0.742578,
2011-09-13, 01:06:04,VALID,916.031,VALID,0,VALID,81.2351,VALID,0,VALID,20.3058,VALID,152,VALID,1.46523,
2011-09-13, 01:07:04,VALID,916.052,VALID,0,VALID,81.6315,VALID,0,VALID,20.3659,VALID,152,VALID,0.629297,
2011-09-13, 01:08:04,VALID,916.067,VALID,0,VALID,81.38,VALID,0,VALID,20.3659,VALID,152,VALID,0.333594,
2011-09-13, 01:09:04,VALID,916.059,VALID,0,VALID,81.5096,VALID,0,VALID,20.3253,VALID,152,VALID,1.0375,
2011-09-13, 01:10:04,VALID,916.032,VALID,0,VALID,81.3571,VALID,0,VALID,20.3269,VALID,152,VALID,0.479297,
2011-09-13, 01:11:04,VALID,916.031,VALID,0,VALID,81.1741,VALID,0,VALID,20.3269,VALID,152,VALID,0.528125,
2011-09-13, 01:12:04,VALID,916.042,VALID,0,VALID,81.1436,VALID,0,VALID,20.3479,VALID,152,VALID,0.563672,
2011-09-13, 01:13:04,VALID,916.021,VALID,0,VALID,81.0293,VALID,0,VALID,20.3479,VALID,152,VALID,0.360938,
2011-09-13, 01:14:04,VALID,916.057,VALID,0,VALID,81.1818,VALID,0,VALID,20.3074,VALID,152,VALID,0.650391,
2011-09-13, 01:15:04,VALID,916.048,VALID,0,VALID,81.4714,VALID,0,VALID,20.2879,VALID,152,VALID,0.749609,
2011-09-13, 01:16:04,VALID,916.052,VALID,0,VALID,81.6773,VALID,0,VALID,20.3074,VALID,152,VALID,0.661328,
2011-09-13, 01:17:04,VALID,916.036,VALID,0,VALID,81.9975,VALID,0,VALID,20.3089,VALID,152,VALID,0.664453,
2011-09-13, 01:18:04,VALID,916.071,VALID,0,VALID,82.3786,VALID,0,VALID,20.2894,VALID,152,VALID,0.412109,
2011-09-13, 01:19:04,VALID,916.038,VALID,0,VALID,82.7141,VALID,0,VALID,20.2504,VALID,152,VALID,0.403906,
2011-09-13, 01:20:04,VALID,916.028,VALID,0,VALID,82.6988,VALID,0,VALID,20.1903,VALID,152,VALID,0.585547,
2011-09-13, 01:21:04,VALID,916.05,VALID,0,VALID,83.0571,VALID,0,VALID,20.1513,VALID,152,VALID,0.628906,
2011-09-13, 01:22:04,VALID,915.99,VALID,0,VALID,83.5221,VALID,0,VALID,20.1529,VALID,152,VALID,0.914844,
2011-09-13, 01:23:04,VALID,915.957,VALID,0,VALID,83.7966,VALID,0,VALID,20.1513,VALID,152,VALID,0.821875,
2011-09-13, 01:24:04,VALID,915.959,VALID,0,VALID,84.0787,VALID,0,VALID,20.1919,VALID,152,VALID,0.541016,
2011-09-13, 01:25:04,VALID,915.926,VALID,0,VALID,84.6047,VALID,0,VALID,20.1498,VALID,152,VALID,0.753516,
2011-09-13, 01:26:04,VALID,915.93,VALID,0,VALID,84.963,VALID,0,VALID,20.1303,VALID,152,VALID,0.718359,
2011-09-13, 01:27:04,VALID,915.923,VALID,0,VALID,85.3136,VALID,0,VALID,20.0913,VALID,152,VALID,0.855859,
2011-09-13, 01:28:04,VALID,915.946,VALID,0,VALID,85.3746,VALID,0,VALID,20.0538,VALID,152,VALID,0.433984,
2011-09-13, 01:29:04,VALID,915.91,VALID,0,VALID,85.9311,VALID,0,VALID,19.9953,VALID,152,VALID,0.680859,
2011-09-13, 01:30:04,VALID,915.895,VALID,0,VALID,86.3733,VALID,0,VALID,19.9368,VALID,152,VALID,0.766797,
2011-09-13, 01:31:04,VALID,915.881,VALID,0,VALID,86.3809,VALID,0,VALID,19.8783,VALID,152,VALID,1.39883,
2011-09-13, 01:32:04,VALID,915.851,VALID,0,VALID,85.8625,VALID,0,VALID,19.8588,VALID,152,VALID,0.948047,
2011-09-13, 01:33:04,VALID,915.846,VALID,0,VALID,86.3962,VALID,0,VALID,19.9173,VALID,152,VALID,1.0293,
2011-09-13, 01:34:04,VALID,915.826,VALID,0,VALID,86.0455,VALID,0,VALID,19.8783,VALID,152,VALID,0.469531,
2011-09-13, 01:35:04,VALID,915.849,VALID,0,VALID,86.0226,VALID,0,VALID,19.9173,VALID,152,VALID,1.25664,
2011-09-13, 01:36:04,VALID,915.838,VALID,0,VALID,86.1598,VALID,0,VALID,19.8963,VALID,152,VALID,0.680469,
2011-09-13, 01:37:04,VALID,915.887,VALID,0,VALID,86.5258,VALID,0,VALID,19.8588,VALID,140,VALID,0.826563,
2011-09-13, 01:38:04,VALID,915.888,VALID,0,VALID,86.6706,VALID,0,VALID,19.7403,VALID,128,VALID,0.505078,
2011-09-13, 01:39:04,VALID,915.869,VALID,0,VALID,86.8917,VALID,0,VALID,19.7208,VALID,134,VALID,0.495313,
2011-09-13, 01:40:04,VALID,915.869,VALID,0,VALID,86.8764,VALID,0,VALID,19.7403,VALID,134,VALID,0.521875,
2011-09-13, 01:41:04,VALID,915.863,VALID,0,VALID,87.1433,VALID,0,VALID,19.6428,VALID,133,VALID,0.848437,
2011-09-13, 01:42:04,VALID,915.853,VALID,0,VALID,87.5626,VALID,0,VALID,19.5648,VALID,116,VALID,0.420312,
2011-09-13, 01:43:04,VALID,915.852,VALID,0,VALID,87.6617,VALID,0,VALID,19.5273,VALID,116,VALID,0.798828,
2011-09-13, 01:44:04,VALID,915.838,VALID,0,VALID,87.6159,VALID,0.107441,VALID,19.4478,VALID,116,VALID,0.51875,
2011-09-13, 01:45:04,VALID,915.833,VALID,0,VALID,86.8993,VALID,0.107441,VALID,19.4283,VALID,116,VALID,0.189844,
2011-09-13, 01:46:04,VALID,915.818,VALID,0,VALID,87.0594,VALID,0.107441,VALID,19.4673,VALID,116,VALID,0.541797,
2011-09-13, 01:47:04,VALID,915.823,VALID,0,VALID,86.8993,VALID,0.107441,VALID,19.4868,VALID,116,VALID,0.604297,
2011-09-13, 01:48:04,VALID,915.787,VALID,0,VALID,87.2043,VALID,0,VALID,19.5273,VALID,116,VALID,0.183984,
2011-09-13, 01:49:04,VALID,915.73,VALID,0,VALID,87.1204,VALID,0.107441,VALID,19.5063,VALID,116,VALID,0,
2011-09-13, 01:50:04,VALID,915.719,VALID,0,VALID,85.9388,VALID,0,VALID,19.5273,VALID,116,VALID,0.00859375,
2011-09-13, 01:51:04,VALID,915.718,VALID,0,VALID,86.2894,VALID,0,VALID,19.6053,VALID,116,VALID,0.185937,
2011-09-13, 01:52:04,VALID,915.72,VALID,0,VALID,85.5119,VALID,0,VALID,19.6053,VALID,116,VALID,0.477734,
2011-09-13, 01:53:04,VALID,915.714,VALID,0,VALID,83.2858,VALID,0,VALID,19.7223,VALID,116,VALID,0.860156,
2011-09-13, 01:54:04,VALID,915.688,VALID,0,VALID,83.5755,VALID,0,VALID,19.9368,VALID,116,VALID,0.254687,
2011-09-13, 01:55:04,VALID,915.662,VALID,0,VALID,81.8145,VALID,0.107441,VALID,19.9743,VALID,116,VALID,0,
2011-09-13, 01:56:04,VALID,915.703,VALID,0,VALID,84.4141,VALID,0,VALID,20.0538,VALID,116,VALID,0.494922,
2011-09-13, 01:57:04,VALID,915.674,VALID,0,VALID,84.0634,VALID,0,VALID,19.9158,VALID,116,VALID,0.682813,
2011-09-13, 01:58:04,VALID,915.668,VALID,0,VALID,82.9809,VALID,0,VALID,19.8978,VALID,116,VALID,0.729688,
2011-09-13, 01:59:04,VALID,915.671,VALID,0,VALID,82.4549,VALID,0,VALID,19.9758,VALID,149,VALID,1.1332,
2011-09-13, 02:00:04,VALID,915.646,VALID,0,VALID,82.9809,VALID,0.107441,VALID,20.0148,VALID,150,VALID,0.867969,
2011-09-13, 02:01:04,VALID,915.622,VALID,0,VALID,82.2872,VALID,0,VALID,20.0538,VALID,150,VALID,0.785156,
2011-09-13, 02:02:04,VALID,915.657,VALID,0,VALID,84.01,VALID,0,VALID,20.0733,VALID,150,VALID,0.8875,
2011-09-13, 02:03:04,VALID,915.61,VALID,0,VALID,83.4307,VALID,0,VALID,19.9953,VALID,150,VALID,0.758984,
2011-09-13, 02:04:04,VALID,915.601,VALID,0,VALID,82.6607,VALID,0,VALID,20.0148,VALID,150,VALID,1.04883,
2011-09-13, 02:05:04,VALID,915.583,VALID,0,VALID,81.8602,VALID,0,VALID,20.0733,VALID,150,VALID,1.14609,
2011-09-13, 02:06:04,VALID,915.547,VALID,0,VALID,80.8997,VALID,0,VALID,20.1708,VALID,228,VALID,0.909766,
2011-09-13, 02:07:04,VALID,915.551,VALID,0,VALID,80.0916,VALID,0,VALID,20.2083,VALID,228,VALID,0.760938,
2011-09-13, 02:08:04,VALID,915.57,VALID,0,VALID,80.2898,VALID,0,VALID,20.2668,VALID,228,VALID,0.456641,
2011-09-13, 02:09:04,VALID,915.519,VALID,0,VALID,80.3737,VALID,0,VALID,20.2668,VALID,228,VALID,0.0316406,
2011-09-13, 02:10:04,VALID,915.544,VALID,0,VALID,80.8311,VALID,0,VALID,20.2879,VALID,228,VALID,0.380859,
2011-09-13, 02:11:04,VALID,915.544,VALID,0,VALID,80.793,VALID,0,VALID,20.2879,VALID,228,VALID,0.475781,
2011-09-13, 02:12:04,VALID,915.527,VALID,0,VALID,81.5553,VALID,0,VALID,20.2473,VALID,228,VALID,0.432031,
2011-09-13, 02:13:04,VALID,915.517,VALID,0,VALID,82.3481,VALID,0,VALID,20.2684,VALID,228,VALID,0.858203,
2011-09-13, 02:14:04,VALID,915.588,VALID,0,VALID,83.3849,VALID,0,VALID,20.2278,VALID,204,VALID,0.791406,
2011-09-13, 02:15:04,VALID,915.593,VALID,0,VALID,83.7508,VALID,0,VALID,20.2098,VALID,204,VALID,0.788672,
2011-09-13, 02:16:04,VALID,915.578,VALID,0,VALID,83.8042,VALID,0,VALID,20.1303,VALID,204,VALID,0.955078,
2011-09-13, 02:17:04,VALID,915.566,VALID,0,VALID,84.0558,VALID,0,VALID,20.1123,VALID,204,VALID,0.983203,
2011-09-13, 02:18:04,VALID,915.59,VALID,0,VALID,84.4293,VALID,0.107441,VALID,20.1123,VALID,204,VALID,0.869141,
2011-09-13, 02:19:04,VALID,915.625,VALID,0,VALID,84.9706,VALID,0,VALID,20.0538,VALID,204,VALID,0.385156,
2011-09-13, 02:20:04,VALID,915.608,VALID,0,VALID,85.1536,VALID,0,VALID,19.9758,VALID,204,VALID,0.33125,
2011-09-13, 02:21:04,VALID,915.607,VALID,0,VALID,85.7101,VALID,0,VALID,19.8978,VALID,204,VALID,0.314063,
2011-09-13, 02:22:04,VALID,915.596,VALID,0,VALID,86.198,VALID,0,VALID,19.8003,VALID,204,VALID,0.685547,
2011-09-13, 02:23:04,VALID,915.589,VALID,0,VALID,86.8612,VALID,0,VALID,19.6443,VALID,204,VALID,0.744922,
2011-09-13, 02:24:04,VALID,915.592,VALID,0,VALID,87.2271,VALID,0,VALID,19.5078,VALID,204,VALID,1.25586,
2011-09-13, 02:25:04,VALID,915.561,VALID,0,VALID,87.2881,VALID,0.107441,VALID,19.4298,VALID,204,VALID,1.02773,
2011-09-13, 02:26:04,VALID,915.553,VALID,0,VALID,87.4482,VALID,0,VALID,19.3503,VALID,204,VALID,0.598828,
2011-09-13, 02:27:04,VALID,915.518,VALID,0,VALID,87.7303,VALID,0,VALID,19.3518,VALID,204,VALID,0.610156,
2011-09-13, 02:28:04,VALID,915.505,VALID,0,VALID,87.8751,VALID,0,VALID,19.3323,VALID,204,VALID,0.812891,
2011-09-13, 02:29:04,VALID,915.505,VALID,0,VALID,88.4621,VALID,0.107441,VALID,19.3128,VALID,204,VALID,0.976953,
2011-09-13, 02:30:04,VALID,915.474,VALID,0,VALID,88.9348,VALID,0,VALID,19.1944,VALID,204,VALID,0.946875,
2011-09-13, 02:31:04,VALID,915.484,VALID,0,VALID,89.5599,VALID,0,VALID,19.0969,VALID,204,VALID,0.589844,
2011-09-13, 02:32:04,VALID,915.473,VALID,0,VALID,90.124,VALID,0,VALID,19.0593,VALID,204,VALID,0.673437,
2011-09-13, 02:33:04,VALID,915.479,VALID,0,VALID,90.2384,VALID,0,VALID,19.0398,VALID,204,VALID,0.489062,
2011-09-13, 02:34:04,VALID,915.488,VALID,0,VALID,90.3908,VALID,0,VALID,19.0398,VALID,204,VALID,1.00234,
2011-09-13, 02:35:04,VALID,915.495,VALID,0,VALID,90.3299,VALID,0,VALID,19.0398,VALID,204,VALID,0.590234,
2011-09-13, 02:36:04,VALID,915.485,VALID,0,VALID,90.1698,VALID,0,VALID,19.0593,VALID,204,VALID,0.400781,
2011-09-13, 02:37:04,VALID,915.465,VALID,0,VALID,90.0097,VALID,0,VALID,19.0983,VALID,204,VALID,0.770703,
2011-09-13, 02:38:04,VALID,915.476,VALID,0,VALID,89.9792,VALID,0,VALID,19.0983,VALID,204,VALID,0.61875,
2011-09-13, 02:39:04,VALID,915.498,VALID,0,VALID,90.0173,VALID,0,VALID,19.0788,VALID,204,VALID,0.545703,
2011-09-13, 02:40:04,VALID,915.507,VALID,0,VALID,89.9868,VALID,0,VALID,19.0998,VALID,204,VALID,0.635938,
2011-09-13, 02:41:04,VALID,915.5,VALID,0,VALID,89.9792,VALID,0.107441,VALID,19.0983,VALID,204,VALID,0.505859,
2011-09-13, 02:42:04,VALID,915.518,VALID,0,VALID,90.0097,VALID,0,VALID,19.0788,VALID,204,VALID,0.425,
2011-09-13, 02:43:04,VALID,915.515,VALID,0,VALID,90.0097,VALID,0,VALID,19.0788,VALID,204,VALID,0,
2011-09-13, 02:44:04,VALID,915.529,VALID,0,VALID,90.0554,VALID,0,VALID,19.0788,VALID,204,VALID,0,
2011-09-13, 02:45:04,VALID,915.524,VALID,0,VALID,90.185,VALID,0,VALID,19.0788,VALID,204,VALID,0.312891,
2011-09-13, 02:46:04,VALID,915.543,VALID,0,VALID,90.2612,VALID,0,VALID,19.0384,VALID,204,VALID,0.382422,
2011-09-13, 02:47:04,VALID,915.546,VALID,0,VALID,90.4747,VALID,0,VALID,19.0384,VALID,204,VALID,0.416797,
2011-09-13, 02:48:04,VALID,915.569,VALID,0,VALID,90.5052,VALID,0,VALID,19.0203,VALID,204,VALID,0.389844,
2011-09-13, 02:49:04,VALID,915.554,VALID,0,VALID,90.6805,VALID,0,VALID,18.9814,VALID,204,VALID,0.269141,
2011-09-13, 02:50:04,VALID,915.56,VALID,0,VALID,91.0007,VALID,0,VALID,18.9619,VALID,204,VALID,0.348828,
2011-09-13, 02:51:04,VALID,915.557,VALID,0,VALID,91.3971,VALID,0,VALID,18.9633,VALID,204,VALID,0.976953,
2011-09-13, 02:52:04,VALID,915.562,VALID,0,VALID,91.6182,VALID,0,VALID,18.9409,VALID,204,VALID,0.706641,
2011-09-13, 02:53:04,VALID,915.587,VALID,0,VALID,91.5191,VALID,0,VALID,18.9619,VALID,204,VALID,0.491406,
2011-09-13, 02:54:04,VALID,915.566,VALID,0,VALID,90.7034,VALID,0,VALID,18.9243,VALID,204,VALID,0.197656,
2011-09-13, 02:55:04,VALID,915.553,VALID,0,VALID,91.1837,VALID,0,VALID,18.8658,VALID,204,VALID,0.0757812,
2011-09-13, 02:56:04,VALID,915.569,VALID,0,VALID,91.4048,VALID,0,VALID,18.8658,VALID,204,VALID,0.249219,
2011-09-13, 02:57:04,VALID,915.572,VALID,0,VALID,91.2142,VALID,0,VALID,18.8449,VALID,204,VALID,0.139453,
2011-09-13, 02:58:04,VALID,915.543,VALID,0,VALID,91.5496,VALID,0,VALID,18.8059,VALID,204,VALID,0,
2011-09-13, 02:59:04,VALID,915.564,VALID,0,VALID,91.6716,VALID,0,VALID,18.7864,VALID,204,VALID,0.282422,
2011-09-13, 03:00:04,VALID,915.564,VALID,0,VALID,91.2828,VALID,0,VALID,18.7474,VALID,204,VALID,0.373047,
2011-09-13, 03:01:04,VALID,915.562,VALID,0,VALID,89.415,VALID,0,VALID,18.8254,VALID,204,VALID,0.518359,
2011-09-13, 03:02:04,VALID,915.569,VALID,0,VALID,87.8065,VALID,0,VALID,18.9814,VALID,204,VALID,0.446094,
2011-09-13, 03:03:04,VALID,915.588,VALID,0,VALID,87.3643,VALID,0,VALID,19.1178,VALID,204,VALID,0.469531,
2011-09-13, 03:04:04,VALID,915.573,VALID,0,VALID,85.6033,VALID,0,VALID,19.2543,VALID,204,VALID,0.615234,
2011-09-13, 03:05:04,VALID,915.538,VALID,0,VALID,85.024,VALID,0,VALID,19.4313,VALID,204,VALID,0.429297,
2011-09-13, 03:06:04,VALID,915.557,VALID,0,VALID,83.8804,VALID,0,VALID,19.5093,VALID,144,VALID,0.890234,
2011-09-13, 03:07:04,VALID,915.552,VALID,0,VALID,82.7064,VALID,0,VALID,19.5858,VALID,143,VALID,0.627734,
2011-09-13, 03:08:04,VALID,915.568,VALID,0,VALID,80.8616,VALID,0,VALID,19.7223,VALID,102,VALID,1.04219,
2011-09-13, 03:09:04,VALID,915.542,VALID,0,VALID,80.1526,VALID,0,VALID,19.8588,VALID,110,VALID,0.763672,
2011-09-13, 03:10:04,VALID,915.54,VALID,0,VALID,79.2073,VALID,0,VALID,19.9368,VALID,110,VALID,0.376563,
2011-09-13, 03:11:04,VALID,915.549,VALID,0,VALID,80.4042,VALID,0,VALID,19.9953,VALID,110,VALID,0.409375,
2011-09-13, 03:12:04,VALID,915.546,VALID,0,VALID,81.3647,VALID,0,VALID,20.0163,VALID,110,VALID,0,
2011-09-13, 03:13:04,VALID,915.556,VALID,0,VALID,80.8844,VALID,0,VALID,19.9563,VALID,142,VALID,0.614453,
2011-09-13, 03:14:04,VALID,915.567,VALID,0,VALID,81.4943,VALID,0,VALID,19.9578,VALID,147,VALID,0.717969,
2011-09-13, 03:15:04,VALID,915.568,VALID,0,VALID,80.8463,VALID,0,VALID,19.9173,VALID,147,VALID,0.276953,
2011-09-13, 03:16:04,VALID,915.53,VALID,0,VALID,80.5414,VALID,0,VALID,19.8783,VALID,147,VALID,0.340625,
2011-09-13, 03:17:04,VALID,915.549,VALID,0,VALID,80.793,VALID,0,VALID,19.8993,VALID,147,VALID,0.197656,
2011-09-13, 03:18:04,VALID,915.524,VALID,0,VALID,80.6176,VALID,0,VALID,19.8783,VALID,147,VALID,0.896875,
2011-09-13, 03:19:04,VALID,915.527,VALID,0,VALID,80.0992,VALID,0,VALID,19.9173,VALID,147,VALID,0.735156,
2011-09-13, 03:20:04,VALID,915.56,VALID,0,VALID,79.8934,VALID,0,VALID,19.9563,VALID,147,VALID,0.564844,
2011-09-13, 03:21:04,VALID,915.545,VALID,0,VALID,79.6876,VALID,0,VALID,19.9758,VALID,147,VALID,0.141797,
2011-09-13, 03:22:04,VALID,915.566,VALID,0,VALID,81.7306,VALID,0,VALID,19.9758,VALID,147,VALID,0.212109,
2011-09-13, 03:23:04,VALID,915.582,VALID,0,VALID,80.0154,VALID,0,VALID,19.9368,VALID,147,VALID,0.420703,
2011-09-13, 03:24:04,VALID,915.604,VALID,0,VALID,80.2669,VALID,0.107441,VALID,19.9758,VALID,147,VALID,0.561328,
2011-09-13, 03:25:04,VALID,915.6,VALID,0,VALID,78.9557,VALID,0,VALID,19.9758,VALID,147,VALID,1.02773,
2011-09-13, 03:26:04,VALID,915.596,VALID,0,VALID,78.8109,VALID,0,VALID,20.1318,VALID,147,VALID,0.728516,
2011-09-13, 03:27:04,VALID,915.582,VALID,0,VALID,79.7486,VALID,0,VALID,20.1708,VALID,147,VALID,0.246094,
2011-09-13, 03:28:04,VALID,915.586,VALID,0,VALID,77.1947,VALID,0,VALID,20.1919,VALID,144,VALID,0.869141,
2011-09-13, 03:29:04,VALID,915.604,VALID,0,VALID,77.0346,VALID,0,VALID,20.2684,VALID,133,VALID,0.578906,
2011-09-13, 03:30:04,VALID,915.605,VALID,0,VALID,76.1732,VALID,0,VALID,20.3269,VALID,159,VALID,1.0168,
2011-09-13, 03:31:04,VALID,915.578,VALID,0,VALID,75.7768,VALID,0,VALID,20.504,VALID,151,VALID,1.00586,
2011-09-13, 03:32:04,VALID,915.612,VALID,0,VALID,76.4629,VALID,0,VALID,20.5414,VALID,149,VALID,0.8125,
2011-09-13, 03:33:04,VALID,915.601,VALID,0,VALID,75.5099,VALID,0,VALID,20.5999,VALID,149,VALID,0.933594,
2011-09-13, 03:34:04,VALID,915.603,VALID,0,VALID,75.3346,VALID,0,VALID,20.6179,VALID,149,VALID,0.8625,
2011-09-13, 03:35:04,VALID,915.568,VALID,0,VALID,75.8073,VALID,0,VALID,20.639,VALID,149,VALID,0.710156,
2011-09-13, 03:36:04,VALID,915.604,VALID,0,VALID,76.6077,VALID,0,VALID,20.5999,VALID,149,VALID,0.955859,
2011-09-13, 03:37:04,VALID,915.572,VALID,0,VALID,73.4211,VALID,0,VALID,20.5414,VALID,149,VALID,1.20469,
2011-09-13, 03:38:04,VALID,915.558,VALID,0,VALID,74.7247,VALID,0,VALID,20.7365,VALID,149,VALID,0.842578,
2011-09-13, 03:39:04,VALID,915.565,VALID,0,VALID,74.0844,VALID,0,VALID,20.8145,VALID,149,VALID,0.762891,
2011-09-13, 03:40:04,VALID,915.529,VALID,0,VALID,75.1288,VALID,0,VALID,20.7966,VALID,149,VALID,0.446094,
2011-09-13, 03:41:04,VALID,915.527,VALID,0,VALID,75.5176,VALID,0,VALID,20.6959,VALID,149,VALID,0.645312,
2011-09-13, 03:42:04,VALID,915.473,VALID,0,VALID,77.1032,VALID,0,VALID,20.6585,VALID,149,VALID,0.453125,
2011-09-13, 03:43:04,VALID,915.487,VALID,0,VALID,77.1795,VALID,0,VALID,20.5609,VALID,149,VALID,0.445313,